Regional Weather Roundup
Issued by NWS State College, PA

Home | Current Version | Previous Version | Text Only | Print | Product List | Glossary On
Versions: 1 2 3 4 5 6 7 8 9 10 11 12 13 14 15 16 17 18 19 20 21 22 23 24 25 26 27 28 29 30 31 32 33 34 35 36 37 38 39 40 41 42 43 44 45 46 47 48 49 50
000
ASUS41 KCTP 102010
RWRCTP

REGIONAL WEATHER ROUNDUP
NATIONAL WEATHER SERVICE STATE COLLEGE PA
300 PM EST SAT DEC 10 2016

Note: "fair" indicates few or no clouds below 12,000 feet with no
significant weather and/or obstructions to visibility.

* = STATION THAT DOES NOT REPORT PRECIPITATION /E.G. RAIN...SNOW...ETC/
    THUNDER OR FOG.

PAZ002>004-007>009-013>016-020>023-029>032-102100-
WESTERN PENNSYLVANIA

CITY           SKY/WX    TMP DP  RH WIND       PRES   REMARKS
ERIE           CLOUDY    26  20  77 SW15      30.38S WCI  14
MEADVILLE      CLOUDY    24  13  62 W15G23    30.36R WCI  11
FRANKLIN*        N/A     25  10  54 W12G17    30.37R WCI  14
NEW CASTLE     CLOUDY    26  14  60 W13G20    30.42S WCI  15
BEAVER COUNTY  CLOUDY    27  14  59 W12       30.41S
BUTLER*        CLOUDY    27  10  50 W9        30.43R
PITTSBURGH INT PTSUNNY   28  12  51 W12       30.41F
PITTSBURGH     FLURRIES  25  15  66 W12       30.41S WCI  14
INDIANA*       CLOUDY    25  16  68 W12       30.41S WCI  14
LATROBE        LGT SNOW  25  19  80 W12       30.44R WCI  14
WASHINGTON CO* CLOUDY    27  12  54 SW10      30.43S
$$

PAZ004>006-010>012-017>019-024>028-033>037-041-042-045-046-049>053-102100-
CENTRAL PENNSYLVANIA

CITY           SKY/WX    TMP DP  RH WIND       PRES   REMARKS
BRADFORD       LGT SNOW  21  16  81 W12G20    30.27R WCI   9
DUBOIS         FLURRIES  24  13  62 W15       30.32R WCI  11
CLEARFIELD     CLOUDY    25  15  66 W10G20    30.35R WCI  15
JOHNSTOWN      LGT SNOW  20  15  81 W10       30.32R WCI   9
ALTOONA        CLOUDY    28  14  55 W12G22    30.38R
STATE COLLEGE  FLURRIES  27  14  59 W12       30.35S
WILLIAMSPORT   CLOUDY    31  16  54 W12G22    30.35S
SELINSGROVE    PTSUNNY   32  15  49 W9G17     30.39R
FT INDIANTOWN  SUNNY     32  13  45 W16       30.38R
CAPITAL CITY   MOSUNNY   34  15  46 W15G24    30.41R
HARRISBURG     PTSUNNY   34  19  54 W17       30.40R
YORK           PTSUNNY   32  14  47 NW13      30.40S
$$

PAZ038>040-043-044-047-048-054-055-060>062-067>071-102100-
EASTERN PENNSYLVANIA

CITY           SKY/WX    TMP DP  RH WIND       PRES   REMARKS
SCRANTON       MOSUNNY   28  22  78 SW8       30.30S
MOUNT POCONO   LGT SNOW  24  15  68 W13G21    30.24R WCI  12
ALLENTOWN      CLOUDY    34  13  41 W12       30.35S
QUAKERTOWN*    MOCLDY    32  14  47 NW9G20    30.36S
READING        MOSUNNY   35  13  40 NW17      30.37S
LANCASTER      PTSUNNY   35  16  45 W14       30.38R
COATESVILLE    PTCLDY    34  14  44 W13G18    30.37R
POTTSTOWN      MOSUNNY   34  12  40 W12G20    30.38S
BLUE BELL      SUNNY     32  14  47 W6        30.36S
DOYLESTOWN     CLOUDY    35  16  45 W12       30.35S
WILLOW GROVE   NOT AVBL
NORTH PHILA    PTSUNNY   37  15  40 W12       30.39R
PHILADELPHIA   MOSUNNY   37  12  35 NW16      30.39R
$$




USA.gov is the U.S. government's official web portal to all federal, state and local government web resources and services.